TimeEDT,TemperatureF,Dew PointF,Humidity,Sea Level PressureIn,VisibilityMPH,Wind Direction,Wind SpeedMPH,Gust SpeedMPH,PrecipitationIn,Events,Conditions,WindDirDegrees,DateUTC
12:58 AM,53.2,45.3,74,30.00,10.0,East,4.6,-,N/A,,Overcast,80,2014-03-25 04:58:00
1:58 AM,53.1,45.7,76,29.98,10.0,ESE,6.9,-,N/A,,Overcast,110,2014-03-25 05:58:00
2:46 AM,53.6,46.4,77,29.97,10.0,ENE,1.2,-,N/A,,Overcast,60,2014-03-25 06:46:00
2:54 AM,53.6,46.4,77,29.97,10.0,North,3.5,-,N/A,,Overcast,360,2014-03-25 06:54:00
2:58 AM,53.1,45.9,77,29.98,10.0,North,5.8,-,N/A,,Overcast,350,2014-03-25 06:58:00
3:00 AM,53.6,46.4,77,29.96,10.0,North,5.8,-,N/A,,Overcast,360,2014-03-25 07:00:00
3:06 AM,53.6,46.4,77,29.96,10.0,North,5.8,-,N/A,,Overcast,10,2014-03-25 07:06:00
3:32 AM,53.6,46.4,77,29.95,10.0,North,4.6,-,N/A,,Overcast,10,2014-03-25 07:32:00
3:58 AM,52.7,46.4,79,29.95,10.0,North,5.8,-,N/A,,Overcast,10,2014-03-25 07:58:00
4:40 AM,51.8,46.4,82,29.93,10.0,NNE,4.6,-,N/A,,Overcast,20,2014-03-25 08:40:00
4:58 AM,52.2,46.4,81,29.93,10.0,North,5.8,-,N/A,,Overcast,360,2014-03-25 08:58:00
5:58 AM,52.0,46.0,80,29.91,10.0,SSE,4.6,-,N/A,,Overcast,150,2014-03-25 09:58:00
6:58 AM,48.9,46.9,93,29.94,10.0,NNW,5.8,-,N/A,,Partly Cloudy,330,2014-03-25 10:58:00
7:58 AM,51.4,47.1,85,29.94,10.0,NNW,2.3,-,N/A,,Mostly Cloudy,330,2014-03-25 11:58:00
8:58 AM,53.6,47.1,79,29.95,10.0,West,2.3,-,N/A,,Clear,260,2014-03-25 12:58:00
9:58 AM,59.2,48.9,69,29.94,10.0,West,10.4,-,N/A,,Clear,280,2014-03-25 13:58:00
10:55 AM,65.3,37.2,35,29.94,7.0,West,20.7,27.6,N/A,,Clear,280,2014-03-25 14:55:00
10:58 AM,63.9,41.0,43,29.95,7.0,NW,20.7,26.5,N/A,,Clear,310,2014-03-25 14:58:00
11:55 AM,65.3,37.2,35,29.94,7.0,West,20.7,27.6,N/A,,Clear,280,2014-03-25 15:55:00
12:52 PM,66.2,32.0,28,29.92,10.0,NW,18.4,24.2,N/A,,Clear,320,2014-03-25 16:52:00
12:58 PM,66.2,33.4,30,29.93,10.0,NW,18.4,24.2,N/A,,Clear,310,2014-03-25 16:58:00
1:00 PM,66.2,32.0,28,29.92,10.0,West,19.6,24.2,N/A,,Clear,280,2014-03-25 17:00:00
1:58 PM,66.9,32.2,27,29.90,10.0,WNW,12.7,24.2,N/A,,Clear,290,2014-03-25 17:58:00
2:01 PM,66.2,32.0,28,29.89,10.0,West,16.1,25.3,N/A,,Clear,270,2014-03-25 18:01:00
2:58 PM,67.8,30.2,25,29.89,10.0,West,20.7,27.6,N/A,,Clear,270,2014-03-25 18:58:00
3:58 PM,66.6,28.2,24,29.88,10.0,WNW,16.1,29.9,N/A,,Clear,290,2014-03-25 19:58:00
4:58 PM,64.6,26.8,24,29.90,10.0,NW,24.2,35.7,N/A,,Clear,310,2014-03-25 20:58:00
5:58 PM,62.6,25.5,24,29.93,10.0,NW,17.3,32.2,N/A,,Clear,310,2014-03-25 21:58:00
6:01 PM,62.6,26.6,26,29.92,10.0,West,15.0,31.1,N/A,,Clear,280,2014-03-25 22:01:00
6:58 PM,59.5,23.9,25,29.96,10.0,NW,20.7,25.3,N/A,,Clear,320,2014-03-25 22:58:00
7:58 PM,56.3,21.7,26,30.00,10.0,NW,20.7,28.8,N/A,,Clear,320,2014-03-25 23:58:00
8:58 PM,53.1,24.8,33,30.05,10.0,NNW,18.4,24.2,N/A,,Clear,330,2014-03-26 00:58:00
9:58 PM,50.5,23.7,35,30.10,10.0,NNW,21.9,25.3,N/A,,Clear,330,2014-03-26 01:58:00
10:58 PM,47.7,21.2,35,30.13,10.0,NNW,18.4,26.5,N/A,,Clear,340,2014-03-26 02:58:00
11:58 PM,46.0,21.7,38,30.15,10.0,NNW,16.1,-,N/A,,Clear,340,2014-03-26 03:58:00